Tracking 35274 objects as of 10-Sep-2026
HD Live streaming from Space Station
objects crossing your sky now

CZ-2C DEB

Track CZ-2C DEB now!
10-day predictions


NORAD ID: 37770
Int'l Code: 2011-039F
Launch date: July 29, 2011
Source: People's Republic of China (PRC)
Launch site: Jiuquan Satellite Launch Center, China (JSC)

Note: This is SATELLITE DEBRIS
Your satellite tracking list
Your tracking list is empty




NASA's NSSDC Master Catalog

Two Line Element Set (TLE):
1 37770U 11039F   26252.33366409  .00029240  00000-0  13097-2 0  9998
2 37770  97.9185 190.9360 0029768  73.9431  77.4711 15.20807606806334
Source of the keplerian elements: AFSPC